Location: Aufkirchen
(47.9603°N, 11.3653°E)
Time: 22:27:30
(UTC+02:00)

Altair - Pass Details

Date: 29 July 2021
Orbit: 1501 x 1682 km, 47.2° (Epoch: 22 September)

Event Time Altitude Azimuth Distance (km) Brightness Sun altitude
Exits shadow 01:16:43 12° 125° (SE) 3,533 9.1 -23.3°
Maximum altitude 01:16:51 12° 124° (ESE) 3,532 9.1 -23.3°
Drops below altitude 10° 01:20:02 10° 103° (ESE) 3,691 9.4 -23.3°
Sets 01:25:38 0° 76° (ENE) 4,653 10.2 -23.3°
